timestamp,surface_pressure_avg,surface_temp_avg,battery_voltage,lat,long
2021-03-24 00:09:01+00:00,230.7897,2.3,12.81,47.84626,-54.09684
2021-03-24 00:19:01+00:00,231.5748,2.3,12.65,47.84626,-54.09684
2021-03-24 00:29:01+00:00,230.7914,2.2,12.65,47.84626,-54.09684
2021-03-24 00:39:01+00:00,228.6248,2.25,12.65,47.84626,-54.09684
2021-03-24 00:49:01+00:00,228.5448,2.27,12.65,47.84626,-54.09684
2021-03-24 00:59:01+00:00,229.4381,2.2,12.65,47.84626,-54.09684
2021-03-24 01:09:01+00:00,229.8048,2.18,12.65,47.84626,-54.09684
2021-03-24 01:19:01+00:00,228.8015,2.2,12.65,47.84626,-54.09684
2021-03-24 01:29:01+00:00,226.5114,2.0,12.65,47.84626,-54.09684
2021-03-24 01:39:01+00:00,224.8731,2.0,12.65,47.84626,-54.09684
2021-03-24 01:49:01+00:00,223.2115,2.15,12.65,47.84626,-54.09684
2021-03-24 01:59:01+00:00,221.3531,2.3,12.65,47.84626,-54.09684
2021-03-24 02:09:01+00:00,220.7814,2.3,12.65,47.84626,-54.09684
2021-03-24 02:19:01+00:00,221.7998,2.33,12.65,47.84626,-54.09684
2021-03-24 02:29:01+00:00,221.2314,2.4,12.65,47.84626,-54.09684
2021-03-24 02:39:01+00:00,222.5298,2.43,12.65,47.84626,-54.09684
2021-03-24 02:49:01+00:00,224.5998,2.5,12.65,47.84626,-54.09684
2021-03-24 02:59:01+00:00,224.5398,2.5,12.65,47.84626,-54.09684
2021-03-24 03:09:01+00:00,225.2848,2.3,12.65,47.84626,-54.09684
2021-03-24 03:19:01+00:00,229.5614,2.28,12.57,47.84626,-54.09684
2021-03-24 03:29:01+00:00,231.6714,2.2,12.57,47.84626,-54.09684
2021-03-24 03:39:01+00:00,231.5131,2.15,12.57,47.84626,-54.09684
2021-03-24 03:49:01+00:00,234.7897,2.1,12.57,47.84626,-54.09684
2021-03-24 03:59:01+00:00,240.1681,2.15,12.57,47.84626,-54.09684
2021-03-24 04:09:01+00:00,240.9164,2.19,12.57,47.84626,-54.09684
2021-03-24 04:19:01+00:00,242.0981,2.0,12.57,47.84626,-54.09684
2021-03-24 04:29:01+00:00,246.8198,2.0,12.57,47.84626,-54.09684
2021-03-24 04:39:01+00:00,254.1864,2.0,12.57,47.84626,-54.09684
2021-03-24 04:49:01+00:00,257.0614,2.0,12.57,47.84626,-54.09684
2021-03-24 04:59:01+00:00,258.3131,2.0,12.57,47.84626,-54.09684
2021-03-24 05:09:01+00:00,263.0381,2.0,12.57,47.84626,-54.09684
2021-03-24 05:19:01+00:00,271.203,2.0,12.57,47.84626,-54.09684
2021-03-24 05:29:01+00:00,276.0147,2.0,12.57,47.84626,-54.09684
2021-03-24 05:39:01+00:00,277.0148,1.99,12.57,47.84626,-54.09684
2021-03-24 05:49:01+00:00,281.6397,1.98,12.57,47.84626,-54.09684
2021-03-24 05:59:01+00:00,288.313,2.0,12.57,47.84626,-54.09684
2021-03-24 06:09:01+00:00,291.5896,2.0,12.57,47.84626,-54.09684
2021-03-24 06:19:01+00:00,291.813,1.9,12.57,47.84626,-54.09684
2021-03-24 06:29:01+00:00,295.293,1.9,12.57,47.84626,-54.09684
2021-03-24 06:39:01+00:00,301.7763,1.9,12.57,47.84626,-54.09684
2021-03-24 06:49:01+00:00,303.2746,1.9,12.57,47.84626,-54.09684
2021-03-24 06:59:01+00:00,303.8297,1.9,12.57,47.84626,-54.09684
2021-03-24 07:09:01+00:00,304.8763,1.9,12.57,47.84626,-54.09684
2021-03-24 07:19:01+00:00,310.2313,1.89,12.57,47.84626,-54.09684
2021-03-24 07:29:01+00:00,312.3113,1.88,12.57,47.84626,-54.09684
2021-03-24 07:39:01+00:00,310.2914,1.8,12.57,47.84626,-54.09684
2021-03-24 07:49:01+00:00,311.093,1.8,12.57,47.84626,-54.09684
2021-03-24 07:59:01+00:00,312.8597,1.8,12.57,47.84626,-54.09684
2021-03-24 08:09:01+00:00,313.3314,1.8,12.57,47.84626,-54.09684
2021-03-24 08:19:01+00:00,313.08799999999997,1.8,12.57,47.84626,-54.09684
2021-03-24 08:29:01+00:00,315.7596,1.8,12.57,47.84626,-54.09684
2021-03-24 08:39:01+00:00,317.7696,1.8,12.57,47.84626,-54.09684
2021-03-24 08:49:01+00:00,315.3098,1.8,12.57,47.84626,-54.09684
2021-03-24 08:59:01+00:00,314.923,1.8,12.57,47.84626,-54.09684
2021-03-24 09:09:01+00:00,314.3513,1.8,12.57,47.84626,-54.09684
2021-03-24 09:19:01+00:00,312.183,1.8,12.49,47.84626,-54.09684
2021-03-24 09:29:01+00:00,307.5963,1.82,12.49,47.84626,-54.09684
2021-03-24 09:39:01+00:00,305.713,1.85,12.49,47.84626,-54.09684
2021-03-24 09:49:01+00:00,304.1213,1.9,12.49,47.84626,-54.09684
2021-03-24 09:59:01+00:00,297.4864,1.9,12.49,47.84626,-54.09684
2021-03-24 10:09:01+00:00,293.1214,1.9,12.49,47.84626,-54.09684
2021-03-24 10:19:01+00:00,292.1297,1.9,12.73,47.84626,-54.09684
2021-03-24 10:29:01+00:00,289.5181,1.9,12.73,47.84626,-54.09684
2021-03-24 10:39:01+00:00,282.5281,1.9,12.73,47.84626,-54.09684
2021-03-24 10:49:01+00:00,279.983,1.93,12.73,47.84626,-54.09684
2021-03-24 10:59:01+00:00,277.4847,1.94,12.73,47.84626,-54.09684
2021-03-24 11:09:01+00:00,271.5281,1.98,12.73,47.84626,-54.09684
2021-03-24 11:19:01+00:00,264.6414,1.9,14.0,47.84626,-54.09684
2021-03-24 11:29:01+00:00,262.173,1.96,14.0,47.84626,-54.09684
2021-03-24 11:39:01+00:00,259.1881,1.96,14.0,47.84626,-54.09684
2021-03-24 11:49:01+00:00,256.0414,1.93,14.0,47.84626,-54.09684
2021-03-24 11:59:01+00:00,252.8131,1.94,14.0,47.84626,-54.09684
2021-03-24 12:09:01+00:00,248.2148,1.99,14.0,47.84626,-54.09684
2021-03-24 12:19:01+00:00,245.9198,1.97,14.56,47.84626,-54.09684
2021-03-24 12:29:01+00:00,245.5231,1.93,14.56,47.84626,-54.09684
2021-03-24 12:39:01+00:00,243.3648,1.93,14.56,47.84626,-54.09684
2021-03-24 12:49:01+00:00,237.4398,1.98,14.56,47.84626,-54.09684
2021-03-24 12:59:01+00:00,232.3781,2.0,14.56,47.84626,-54.09684
2021-03-24 13:09:01+00:00,228.6164,2.0,14.56,47.84626,-54.09684
2021-03-24 13:19:01+00:00,224.8281,2.09,14.64,47.84626,-54.09684
2021-03-24 13:29:01+00:00,223.0681,2.17,14.64,47.84626,-54.09684
2021-03-24 13:39:01+00:00,222.5931,2.21,14.64,47.84626,-54.09684
2021-03-24 13:49:01+00:00,221.6647,2.25,14.64,47.84626,-54.09684
2021-03-24 13:59:01+00:00,221.0497,2.3,14.64,47.84626,-54.09684
2021-03-24 14:09:01+00:00,219.3715,2.3,14.64,47.84626,-54.09684
2021-03-24 14:19:01+00:00,216.0531,2.3,14.64,47.84626,-54.09684
2021-03-24 14:29:01+00:00,213.5631,2.3,14.64,47.84626,-54.09684
2021-03-24 14:39:01+00:00,215.3281,2.3,14.64,47.84626,-54.09684
2021-03-24 14:49:01+00:00,214.9798,2.23,14.64,47.84626,-54.09684
2021-03-24 14:59:01+00:00,211.5665,2.25,14.64,47.84626,-54.09684
2021-03-24 15:09:01+00:00,211.5514,2.3,14.64,47.84626,-54.09684
2021-03-24 15:19:01+00:00,217.7897,2.3,14.64,47.84626,-54.09684
2021-03-24 15:29:01+00:00,219.9514,2.2,14.64,47.84626,-54.09684
2021-03-24 15:39:01+00:00,213.3681,2.1,14.64,47.84626,-54.09684
2021-03-24 15:49:01+00:00,213.8398,2.2,14.64,47.84626,-54.09684
2021-03-24 15:59:01+00:00,220.3447,2.3,14.64,47.84626,-54.09684
2021-03-24 16:09:01+00:00,220.8247,2.1,14.64,47.84626,-54.09684
2021-03-24 16:19:01+00:00,220.3081,1.9,14.56,47.84626,-54.09684
2021-03-24 16:29:01+00:00,223.4398,1.9,14.56,47.84626,-54.09684
2021-03-24 16:39:01+00:00,227.2731,1.96,14.56,47.84626,-54.09684
2021-03-24 16:49:01+00:00,231.6798,1.9,14.56,47.84626,-54.09684
2021-03-24 16:59:01+00:00,236.5731,1.9,14.56,47.84626,-54.09684
2021-03-24 17:09:01+00:00,241.2098,1.89,14.56,47.84626,-54.09684
2021-03-24 17:19:01+00:00,243.7448,1.9,14.4,47.84626,-54.09684
2021-03-24 17:29:01+00:00,248.1347,1.91,14.4,47.84626,-54.09684
2021-03-24 17:39:01+00:00,252.8764,1.99,14.4,47.84626,-54.09684
2021-03-24 17:49:01+00:00,258.0814,1.99,14.4,47.84626,-54.09684
2021-03-24 17:59:01+00:00,259.4481,1.97,14.4,47.84626,-54.09684
2021-03-24 18:09:01+00:00,263.1097,1.93,14.4,47.84626,-54.09684
2021-03-24 18:19:01+00:00,266.4914,1.93,14.24,47.84626,-54.09684
2021-03-24 18:29:01+00:00,269.8831,1.9,14.24,47.84626,-54.09684
2021-03-24 18:39:01+00:00,270.9247,1.9,14.24,47.84626,-54.09684
2021-03-24 18:49:01+00:00,278.9481,1.86,14.24,47.84626,-54.09684
2021-03-24 18:59:01+00:00,284.8647,1.9,14.24,47.84626,-54.09684
2021-03-24 19:09:01+00:00,283.2731,1.9,14.24,47.84626,-54.09684
2021-03-24 19:19:01+00:00,281.4947,1.89,14.0,47.84626,-54.09684
2021-03-24 19:29:01+00:00,283.9264,1.9,14.0,47.84626,-54.09684
2021-03-24 19:39:01+00:00,286.4597,1.9,14.0,47.84626,-54.09684
2021-03-24 19:49:01+00:00,284.4363,1.9,14.0,47.84626,-54.09684
2021-03-24 19:59:01+00:00,285.3214,1.89,14.0,47.84626,-54.09684
2021-03-24 20:09:01+00:00,289.1014,1.9,14.0,47.84626,-54.09684
2021-03-24 20:19:01+00:00,294.7364,1.8,13.76,47.84626,-54.09684
2021-03-24 20:29:01+00:00,294.8114,1.8,13.76,47.84626,-54.09684
2021-03-24 20:39:01+00:00,294.0197,1.8,13.76,47.84626,-54.09684
2021-03-24 20:49:01+00:00,295.4647,1.8,13.76,47.84626,-54.09684
2021-03-24 20:59:01+00:00,301.553,1.8,13.76,47.84626,-54.09684
2021-03-24 21:09:01+00:00,302.6631,1.8,13.76,47.84626,-54.09684
2021-03-24 21:19:01+00:00,299.6348,1.8,13.6,47.84626,-54.09684
2021-03-24 21:29:01+00:00,294.8764,1.8,13.6,47.84626,-54.09684
2021-03-24 21:39:01+00:00,296.0347,1.8,13.6,47.84626,-54.09684
2021-03-24 21:49:01+00:00,296.4448,1.8,13.6,47.84626,-54.09684
2021-03-24 21:59:01+00:00,291.938,1.8,13.6,47.84626,-54.09684
2021-03-24 22:09:01+00:00,287.4064,1.8,13.6,47.84626,-54.09684
2021-03-24 22:19:01+00:00,287.0931,1.83,13.21,47.84626,-54.09684
2021-03-24 22:29:01+00:00,282.4264,1.88,13.21,47.84626,-54.09684
2021-03-24 22:39:01+00:00,274.8514,1.89,13.21,47.84626,-54.09684
2021-03-24 22:49:01+00:00,269.2781,1.9,13.21,47.84626,-54.09684
2021-03-24 22:59:01+00:00,268.0248,1.9,13.21,47.84626,-54.09684
2021-03-24 23:09:01+00:00,265.1081,1.9,13.21,47.84626,-54.09684
2021-03-24 23:19:01+00:00,261.4381,1.9,12.89,47.84626,-54.09684
2021-03-24 23:29:01+00:00,259.9948,1.9,12.89,47.84626,-54.09684
2021-03-24 23:39:01+00:00,259.6114,1.9,12.89,47.84626,-54.09684
2021-03-24 23:49:01+00:00,254.1497,1.9,12.89,47.84626,-54.09684
2021-03-24 23:59:01+00:00,248.2347,1.9,12.89,47.84626,-54.09684
